Le nostre stazioni meteo in Italia

Pubblicità
Il mio iltempo24.it
Capo Caccia, Italia (16522): Temperatura & dewpoint: 05.12.2018 02:00:00 - 11.12.2018 02:00:00 (CET)Capo Caccia, Italia (16522): velocità del vento: 05.12.2018 02:00:00 - 11.12.2018 02:00:00 (CET)Capo Caccia, Italia (16522): direzione del vento: 05.12.2018 02:00:00 - 11.12.2018 02:00:00 (CET)Capo Caccia, Italia (16522): reduced air pressure: 05.12.2018 02:00:00 - 11.12.2018 02:00:00 (CET)Capo Caccia, Italia (16522): visibility: 05.12.2018 02:00:00 - 11.12.2018 02:00:00 (CET)Capo Caccia, Italia (16522): ore di luce: 05.12.2018 02:00:00 - 11.12.2018 02:00:00 (CET)
Data & Tempo tt [°C] td [°C] ff [km/h] ff [kn] dd ppp [hPa] vv [km] sd [min]
11.12.2018 02:00:00 12,4 9,0 37 20 NO 1020,6 15 -
11.12.2018 01:00:00 12,4 9,8 37 20 NNO 1020,6 15 -
11.12.2018 00:00:00 12,4 9,4 37 20 NO 1020,6 15 -
10.12.2018 23:00:00 12,4 9,0 37 20 NNO 1020,6 15 -
10.12.2018 22:00:00 12,2 9,2 34 18 NO 1021,5 10 -
10.12.2018 21:00:00 12,4 9,8 34 18 NNO 1021,3 15 -
10.12.2018 20:00:00 12,4 10,0 28 15 NNO 1021,2 15 -
10.12.2018 19:00:00 12,4 9,6 34 18 NO 1020,5 15 -
10.12.2018 18:00:00 12,6 10,1 37 20 NNO 1020,5 12 -
10.12.2018 17:00:00 12,8 10,2 42 23 NNO 1020,5 12 0
10.12.2018 16:00:00 12,8 10,0 46 25 NO 1020,5 12 24
10.12.2018 15:00:00 13,0 9,6 52 28 NO 1020,5 12 60
10.12.2018 14:00:00 13,0 9,2 48 26 NNO 1021,1 12 60
10.12.2018 13:00:00 13,4 9,5 52 28 NNO 1020,4 12 60
10.12.2018 12:00:00 13,4 9,7 48 26 NO 1020,8 12 30
10.12.2018 11:00:00 13,4 10,4 46 25 NO 1021,5 12 18
10.12.2018 10:00:00 13,4 9,1 48 26 NO 1021,5 10 24
10.12.2018 09:00:00 13,4 10,9 37 20 NNO 1020,4 20 0
10.12.2018 08:00:00 13,8 11,3 46 25 NNO 1021,3 20 0
10.12.2018 07:00:00 13,6 11,0 37 20 NO 1021,0 15 0
10.12.2018 06:00:00 13,6 10,4 41 22 NO 1020,2 15 -
10.12.2018 05:00:00 13,6 10,2 41 22 NO 1020,4 15 -
10.12.2018 04:00:00 13,6 10,6 46 25 ONO 1020,1 15 -
10.12.2018 03:00:00 13,6 10,2 37 20 NO 1020,1 15 -
10.12.2018 02:00:00 13,8 10,8 29 16 NO 1021,3 15 -
10.12.2018 01:00:00 13,8 10,4 28 15 NO 1021,3 15 -
10.12.2018 00:00:00 14,8 11,4 37 20 NO 1021,0 15 -
09.12.2018 23:00:00 15,0 11,6 28 15 NO 1021,3 20 -
09.12.2018 22:00:00 15,0 12,0 34 18 NO 1021,3 15 -
09.12.2018 21:00:00 15,0 13,0 34 18 NO 1021,3 15 -
09.12.2018 20:00:00 15,2 13,2 34 18 ONO 1021,3 15 -
09.12.2018 19:00:00 15,0 12,3 42 23 NO 1020,6 15 -
09.12.2018 18:00:00 15,0 13,0 37 20 ONO 1020,0 15 -
09.12.2018 17:00:00 15,0 13,0 44 24 NO 1021,1 20 0
09.12.2018 16:00:00 15,4 13,4 34 18 NO 1021,3 20 12
09.12.2018 15:00:00 15,8 13,5 37 20 ONO 1020,5 20 48
09.12.2018 14:00:00 15,8 13,5 41 22 ONO 1020,6 20 48
09.12.2018 13:00:00 15,6 14,0 37 20 NNO 1021,9 20 12
09.12.2018 12:00:00 15,6 14,0 29 16 NO 1022,3 20 12
09.12.2018 11:00:00 15,4 12,9 37 20 NNO 1022,0 20 12
09.12.2018 10:00:00 15,0 14,0 34 18 ONO 1022,3 20 0
09.12.2018 09:00:00 14,8 13,2 37 20 ONO 1022,3 20 0
09.12.2018 08:00:00 14,6 13,0 34 18 ONO 1021,3 20 0
09.12.2018 07:00:00 14,6 13,0 41 22 ONO 1021,3 20 0
09.12.2018 06:00:00 14,0 13,2 41 22 NNO 1021,3 20 -
09.12.2018 05:00:00 14,0 13,2 37 20 NNO 1021,3 20 -
09.12.2018 04:00:00 14,0 13,2 41 22 NNO 1022,4 20 -
09.12.2018 03:00:00 14,0 12,7 44 24 NNO 1023,0 20 -
09.12.2018 02:00:00 14,0 12,0 41 22 ONO 1022,8 20 -
09.12.2018 01:00:00 14,0 12,2 42 23 NO 1023,0 20 -
09.12.2018 00:00:00 13,8 11,9 39 21 NNO 1023,0 20 -
08.12.2018 23:00:00 13,8 11,7 37 20 NNO 1022,9 20 -
08.12.2018 22:00:00 14,0 11,9 37 20 NNO 1022,9 20 -
08.12.2018 21:00:00 13,6 11,1 41 22 NNO 1022,4 20 -
08.12.2018 20:00:00 13,6 11,1 46 25 NNO 1022,2 20 -
08.12.2018 19:00:00 13,4 10,0 46 25 NNO 1022,4 20 -
08.12.2018 18:00:00 13,4 10,0 44 24 NO 1021,5 20 0
08.12.2018 17:00:00 13,4 9,7 41 22 NNO 1021,5 20 0
08.12.2018 16:00:00 14,0 10,6 37 20 NNO 1021,2 20 42
08.12.2018 15:00:00 14,0 10,6 41 22 NNO 1021,1 20 60
08.12.2018 14:00:00 13,8 10,0 46 25 NNO 1020,4 20 60
08.12.2018 13:00:00 13,8 8,8 42 23 NNO 1021,5 20 60
08.12.2018 12:00:00 13,8 8,8 52 28 NO 1021,5 20 60
08.12.2018 11:00:00 14,0 10,0 55 30 NNO 1021,4 20 60
08.12.2018 10:00:00 13,6 9,2 52 28 NNO 1020,4 20 60
08.12.2018 09:00:00 13,2 9,5 35 19 NNO 1019,7 20 60
08.12.2018 08:00:00 13,2 8,9 41 22 NO 1019,6 20 0
08.12.2018 07:00:00 13,4 8,5 42 23 NNO 1019,7 20 0
08.12.2018 06:00:00 14,4 10,2 46 25 NNO 1019,3 20 -
08.12.2018 05:00:00 14,8 11,6 44 24 NO 1019,5 20 -
08.12.2018 04:00:00 14,6 12,5 35 19 ONO 1019,4 20 -
08.12.2018 03:00:00 14,8 13,4 35 19 ONO 1019,2 20 -
08.12.2018 02:00:00 14,8 13,8 34 18 ONO 1019,6 20 -
08.12.2018 01:00:00 15,0 13,9 29 16 ONO 1020,4 20 -
08.12.2018 00:00:00 14,8 12,8 31 17 NO 1021,3 20 -
07.12.2018 23:00:00 14,8 13,4 28 15 ONO 1021,7 20 -
07.12.2018 22:00:00 14,8 14,0 21 11 NO 1022,2 20 -
07.12.2018 21:00:00 14,0 12,5 18 10 ONO 1022,6 20 -
07.12.2018 20:00:00 13,8 12,2 15 8 O 1022,4 20 -
07.12.2018 19:00:00 14,0 12,7 15 8 SO 1022,9 20 0
07.12.2018 18:00:00 14,4 13,6 15 8 OSO 1022,9 20 0
07.12.2018 17:00:00 14,6 13,8 8 4 OSO 1022,9 20 42
07.12.2018 16:00:00 16,4 14,8 8 4 SSO 1022,9 20 42
07.12.2018 15:00:00 16,6 14,8 5 3 SSO 1022,9 20 30
07.12.2018 14:00:00 16,8 14,3 5 3 SSO 1023,4 20 60
07.12.2018 13:00:00 16,8 14,4 8 4 SSO 1023,9 20 30
07.12.2018 12:00:00 17,0 14,3 5 3 ESE 1024,1 20 60
07.12.2018 11:00:00 16,6 14,8 0 0 N 1024,1 20 60
07.12.2018 10:00:00 15,2 13,0 5 3 NE 1023,8 20 30
07.12.2018 09:00:00 14,0 11,7 0 0 N 1023,4 20 30
07.12.2018 08:00:00 13,0 11,4 11 6 E 1023,2 20 0
07.12.2018 07:00:00 13,2 11,6 9 5 NE 1023,0 15 -
07.12.2018 06:00:00 13,0 11,4 11 6 NE 1022,7 15 -
07.12.2018 05:00:00 13,0 11,4 8 4 NE 1022,7 15 -
07.12.2018 04:00:00 13,0 11,4 9 5 NE 1022,6 15 -
07.12.2018 03:00:00 13,0 11,7 13 7 NNE 1022,7 15 -
07.12.2018 02:00:00 13,0 11,7 11 6 N 1022,5 10 -
07.12.2018 01:00:00 13,0 11,6 11 6 N 1022,4 15 -
07.12.2018 00:00:00 13,2 11,9 13 7 N 1022,3 15 -
06.12.2018 23:00:00 13,2 11,6 15 8 N 1022,1 10 -
06.12.2018 22:00:00 13,2 12,2 22 12 N 1021,8 15 -
06.12.2018 21:00:00 13,8 12,9 18 10 N 1021,4 15 -
06.12.2018 20:00:00 15,2 14,2 18 10 N 1021,0 15 -
06.12.2018 19:00:00 15,2 13,6 26 14 NNO 1020,5 15 -
06.12.2018 18:00:00 15,2 13,9 34 18 NNO 1020,0 15 -
06.12.2018 17:00:00 15,2 13,9 28 15 NNO 1019,8 20 0
06.12.2018 16:00:00 15,4 14,4 31 17 NO 1020,3 15 12
06.12.2018 15:00:00 15,6 14,0 22 12 ONO 1019,9 20 60
06.12.2018 14:00:00 15,6 14,0 18 10 ONO 1021,0 20 12
06.12.2018 13:00:00 15,8 14,2 24 13 ONO 1021,3 20 48
06.12.2018 12:00:00 15,6 14,0 18 10 ONO 1023,0 20 12
06.12.2018 11:00:00 15,0 13,0 13 7 ONO 1023,1 20 0
06.12.2018 10:00:00 15,0 13,2 8 4 ONO 1023,1 20 0
06.12.2018 09:00:00 15,0 13,2 8 4 OSO 1022,3 20 0
06.12.2018 08:00:00 15,0 13,4 13 7 O 1022,3 15 0
06.12.2018 07:00:00 15,0 13,2 9 5 OSO 1022,6 12 -
06.12.2018 06:00:00 15,0 13,4 9 5 O 1022,7 12 -
06.12.2018 05:00:00 15,0 13,4 9 5 O 1023,5 12 -
06.12.2018 04:00:00 15,0 13,4 8 4 O 1024,3 10 -
06.12.2018 03:00:00 15,0 13,4 8 4 O 1024,3 12 -
06.12.2018 02:00:00 15,0 13,5 8 4 O 1024,5 15 -
06.12.2018 01:00:00 15,0 13,7 8 4 O 1025,1 15 -
06.12.2018 00:00:00 14,8 13,8 5 3 O 1025,1 15 -
05.12.2018 23:00:00 15,0 14,2 8 4 SO 1025,1 15 -
05.12.2018 22:00:00 15,2 14,4 5 3 O 1024,9 10 -
05.12.2018 21:00:00 14,2 13,1 8 4 OSO 1025,2 20 -
05.12.2018 20:00:00 14,0 12,7 5 3 O 1024,9 12 -
05.12.2018 19:00:00 14,2 13,4 5 3 SO 1024,7 12 0
05.12.2018 18:00:00 14,0 13,4 5 3 SO 1024,4 12 0
05.12.2018 17:00:00 15,0 14,2 8 4 SSO 1024,3 12 24
05.12.2018 16:00:00 15,8 14,2 4 2 O 1024,2 12 60
05.12.2018 15:00:00 16,0 14,4 11 6 SO 1024,2 12 60
05.12.2018 14:00:00 17,0 14,5 8 4 OSO 1024,1 15 60
05.12.2018 13:00:00 16,8 14,3 8 4 SO 1024,2 12 60
05.12.2018 12:00:00 16,0 13,7 4 2 SSO 1024,2 12 60
05.12.2018 11:00:00 16,6 14,2 5 3 SO 1024,6 12 60
05.12.2018 10:00:00 16,0 13,8 5 3 SO 1024,2 12 60
05.12.2018 09:00:00 15,0 13,4 5 3 OSO 1023,3 20 60
05.12.2018 08:00:00 14,4 13,8 9 5 OSO 1023,1 20 0
05.12.2018 07:00:00 15,0 14,2 5 3 O 1022,3 20 0
05.12.2018 06:00:00 15,0 14,2 16 9 ONO 1022,3 20 -
05.12.2018 05:00:00 15,0 13,5 18 10 ONO 1021,8 20 -
05.12.2018 04:00:00 15,0 13,4 15 8 ONO 1021,8 20 -
05.12.2018 03:00:00 15,0 13,2 18 10 NO 1021,3 20 -
05.12.2018 02:00:00 15,0 13,0 16 9 NO 1021,3 20 -

tt = Temperatura
td = dewpoint
ff = velocità del vento
dd = direzione del vento
ppp = reduced air pressure
vv = visibility
sd = ore di luce

Stazioni seguenti

WeatherPro
AMSI
MeteoEarth